Torna al catalogo

STARLINK-5901

AttivoComunicazioniVLEO
NORAD 55999·PAYLOAD·🇺🇸 United States

Lanciato Mar 24, 2023 da Cape Canaveral Space Force Station

Loading…

Prossimi Passaggi (prossime 24 ore)

TLE

AggiornatoSource: CelesTrak SupGP

Epoca: Sep 15, 2026, 03:05 UTC

1 55999C 23042P   26258.12895833 -.00030467  00000+0 -11035-2 0  2581
2 55999  43.0017  69.9078 0001970 264.1792 320.3411 15.27592795    18

Traccia STARLINK-5901 in tempo reale con AllMySat

Download on the App Store